Overview Statistics Trail Chart Weather Telemetry Raw packets
 

This is the latest recevied weather packets stored in our database for station/object N8BAP. If no packets are shown the sender has not sent any weather packets the latest 10 day(s).

<< 93 94 95 96 97 98 99 >>
Time Temp. Humidity Pressure Rain* Wind** Luminosity Snow
1787928012 25.56° C 71% 1025.7 hPa 0 mm - 501 W/m² -
1787927712 25° C 73% 1025.6 hPa 0 mm - 530 W/m² -
1787927407 25.56° C 74% 1025.5 hPa 0 mm - 517 W/m² -
1787927103 25° C 74% 1025.5 hPa 0 mm - 505 W/m² -
1787926797 25° C 74% 1025.4 hPa 0 mm - 483 W/m² -
1787926496 25° C 73% 1025.4 hPa 0 mm - 455 W/m² -
1787926195 24.44° C 74% 1025.2 hPa 0 mm - 467 W/m² -
1787925894 24.44° C 75% 1025.2 hPa 0 mm - 433 W/m² -
1787925589 24.44° C 75% 1025.5 hPa 0 mm - 406 W/m² -
1787925284 24.44° C 75% 1025 hPa 0 mm - 377 W/m² -
1787924985 23.89° C 77% 1025.1 hPa 0 mm - 365 W/m² -
1787924678 23.89° C 75% 1025 hPa 0 mm - 344 W/m² -
1787924372 23.89° C 77% 1025 hPa 0 mm - 329 W/m² -
1787924062 23.33° C 80% 1025.1 hPa 0 mm - 313 W/m² -
1787923756 23.89° C 79% 1025 hPa 0 mm - 294 W/m² -
1787923451 23.33° C 79% 1025.1 hPa 0 mm - 289 W/m² -
1787923147 23.33° C 79% 1025.2 hPa 0 mm - 259 W/m² -
1787922842 22.78° C 82% 1024.9 hPa 0 mm - 257 W/m² -
1787922541 22.22° C 81% 1024.9 hPa 0 mm - 240 W/m² -
1787922241 21.67° C 84% 1024.9 hPa 0 mm - 109 W/m² -
1787921938 21.67° C 83% 1024.9 hPa 0 mm - 104 W/m² -
1787921633 21.67° C 82% 1024.7 hPa 0 mm - 130 W/m² -
1787921332 21.67° C 82% 1025.2 hPa 0 mm - 166 W/m² -
1787921028 21.67° C 84% 1024.8 hPa 0 mm - 86 W/m² -
1787920723 20.56° C 86% 1024.8 hPa 0 mm - 77 W/m² -

* Rain latest hour (hover to see other rain measurements)
** Current wind speed in m/s (hover to see current wind gust speed)